Wind_Speed
35 34 35 35 34 35 36 37 38 39 41 42 44 45 45 45 44 42 39 36 33 30 29 27 27 27 27 26 26 26 25 25 25 23 22 21 21 20 20 19 19 19 20 19 18 18 19 20 19 19 21 23 25 27 28 30 31 33 33 32 31 30 29 29 28 26 26 25 25 26 26 27 28 29 30 29 28 27 27 27 28 28 28 27 26 25 23
39 38 36 36 35 35 36 37 37 39 40 41 42 43 44 44 43 42 41 38 37 35 31 28 27 28 27 26 25 25 25 25 25 25 24 24 23 23 23 23 22 22 22 22 21 20 20 21 22 22 22 23 24 26 27 29 31 33 34 33 34 34 32 32 32 31 30 29 28 28 28 28 28 29 31 31 30 28 27 27 27 27 27 27 27 25 24
37 41 40 38 37 36 36 36 37 37 39 40 41 42 43 44 43 42 41 40 39 39 36 32 30 29 28 27 26 26 27 27 27 27 27 27 26 26 25 24 24 24 24 24 24 24 23 23 23 23 24 25 25 25 26 27 29 31 32 32 34 36 35 34 35 35 34 33 31 30 29 29 30 30 30 31 31 30 28 27 27 27 27 27 27 26 25
33 39 42 41 39 38 37 37 37 37 37 37 39 40 41 43 43 41 40 40 39 39 38 36 34 31 29 28 28 28 28 29 30 30 30 30 30 29 27 25 23 23 24 25 26 26 26 25 25 25 27 27 26 26 26 26 27 29 30 31 33 36 38 38 38 37 35 33 33 32 30 30 31 32 31 31 31 31 31 30 29 29 28 28 27 26 26
29 33 39 43 43 41 39 38 38 37 36 35 36 38 39 40 42 42 41 40 39 39 39 38 36 35 33 32 31 31 30 31 31 32 32 32 32 30 28 25 22 21 22 24 26 27 28 28 28 28 29 29 28 26 25 25 25 24 25 28 31 33 36 38 38 36 35 34 34 34 33 33 34 34 33 32 32 33 34 33 32 31 31 31 29 28 28
27 28 33 39 41 41 40 40 40 38 38 36 35 35 35 36 39 41 42 41 41 40 39 37 36 35 35 35 35 34 33 33 33 33 33 32 32 30 28 25 24 23 22 22 24 27 29 30 30 30 31 30 29 27 25 25 24 22 21 23 25 26 28 31 33 33 34 34 34 33 33 35 37 36 35 34 34 35 35 35 35 34 34 33 32 31 30
24 25 28 31 34 36 38 40 41 40 39 38 36 34 33 34 36 38 41 42 42 41 39 38 37 37 38 37 37 36 36 35 34 33 33 32 31 30 29 26 26 26 25 24 25 27 29 30 30 30 31 31 30 29 27 26 26 24 22 22 22 22 23 24 26 28 29 30 30 28 29 31 33 35 37 38 37 36 36 38 38 37 36 34 33 33 33
20 22 24 26 27 29 32 34 37 40 39 37 36 34 33 33 34 35 37 38 39 39 39 39 39 39 40 40 39 39 38 37 36 35 34 34 33 32 30 28 27 27 27 27 27 28 29 30 30 30 29 29 29 29 28 27 26 26 25 23 23 23 24 23 25 26 25 26 26 25 25 25 26 30 36 40 40 38 36 38 39 38 37 37 35 34 33
18 19 21 22 23 26 28 27 29 34 38 37 35 33 32 31 32 33 34 35 36 36 37 38 39 38 38 38 40 41 41 40 40 39 38 37 36 35 33 30 28 27 27 27 28 29 30 31 31 31 30 29 29 29 28 27 26 27 27 26 24 24 24 22 23 24 25 25 24 23 23 22 23 26 31 36 40 40 38 38 38 37 37 38 37 36 35
17 18 19 21 22 24 27 27 25 27 31 34 34 32 31 31 32 33 33 34 34 34 35 36 38 39 40 41 43 43 43 43 42 42 41 39 38 37 35 32 30 28 28 28 29 30 31 32 32 32 32 31 30 29 29 28 27 27 28 28 26 26 25 22 21 21 22 23 21 20 20 20 22 24 26 29 34 38 39 39 38 37 36 37 38 39 39
15 16 18 20 22 22 25 28 28 26 25 27 28 29 30 32 33 33 34 35 35 35 35 36 38 41 44 45 44 41 39 40 40 40 39 39 37 36 35 34 32 31 30 30 30 31 31 33 33 33 32 31 30 30 31 30 29 28 28 29 28 28 28 27 25 23 22 22 21 18 17 16 17 20 22 23 26 30 34 38 39 38 37 37 39 40 39
14 15 16 18 20 21 22 25 27 27 26 24 24 26 29 32 34 35 34 34 34 34 35 36 39 41 42 40 37 32 30 32 35 36 36 36 35 35 35 35 35 34 34 33 34 33 33 33 34 34 33 31 30 31 31 31 30 29 29 29 29 28 29 29 30 28 25 24 23 21 20 18 16 16 17 17 17 20 24 29 34 38 38 38 38 37 37
12 13 15 16 17 18 19 21 23 25 25 25 26 27 27 30 34 37 38 36 34 34 35 37 39 40 39 38 36 33 31 32 34 35 35 35 35 35 36 36 36 37 37 36 36 36 36 35 35 35 35 34 33 32 31 31 30 30 29 29 29 29 29 30 31 31 30 29 27 25 24 24 21 19 18 15 15 17 17 17 21 29 35 37 37 37 37
12 12 13 14 15 16 16 18 19 21 23 26 29 30 29 29 31 35 38 39 37 35 36 38 40 41 40 38 37 36 34 34 35 35 36 37 37 37 37 37 37 37 37 37 37 38 38 38 38 37 36 36 35 34 33 32 31 30 30 30 30 29 29 30 31 31 31 32 31 28 27 26 26 25 25 22 21 22 21 17 16 20 25 30 33 34 35
11 12 13 14 15 16 16 16 17 19 21 23 26 29 31 31 30 31 34 38 39 38 37 38 40 42 43 42 39 37 35 34 34 35 36 37 38 38 38 38 38 38 37 37 38 38 38 38 39 39 38 38 38 37 37 35 34 32 31 31 31 30 30 31 32 31 30 31 31 29 28 28 29 28 28 27 26 26 27 24 20 19 18 19 22 25 27
12 13 13 13 14 15 16 17 17 18 18 19 21 25 28 29 30 31 32 33 35 36 37 38 38 39 40 40 38 37 36 36 37 37 37 38 38 37 38 38 38 38 38 38 38 38 38 38 39 40 39 39 39 40 39 39 37 35 34 32 31 31 31 32 32 32 31 31 31 30 29 29 30 29 28 27 27 26 27 26 24 22 21 19 18 19 20
13 13 14 14 15 15 16 17 17 18 18 18 19 22 25 26 27 29 31 32 33 33 34 36 38 38 39 38 36 35 35 37 38 40 40 40 39 39 39 39 40 41 41 41 40 40 40 40 40 41 41 41 41 40 40 41 40 39 37 35 34 32 32 32 33 33 32 32 32 32 31 31 31 30 28 27 26 26 27 28 27 26 26 25 24 23 22
11 12 13 14 15 16 17 17 18 18 18 18 19 20 22 24 25 27 29 31 32 33 33 34 36 38 40 41 40 38 36 37 38 40 41 41 41 40 40 41 42 43 43 43 43 43 43 43 43 43 43 43 43 42 41 41 41 40 39 38 37 35 34 34 34 33 33 32 32 32 33 33 33 33 31 30 29 29 29 30 29 28 28 28 28 28 27
12 12 13 14 15 15 16 17 18 19 19 19 19 20 21 23 24 25 26 27 29 31 33 34 36 37 39 41 42 41 40 40 40 40 41 41 42 42 42 42 43 43 44 45 45 45 45 45 46 46 46 46 46 45 44 42 41 41 40 40 39 38 37 37 36 36 35 34 33 32 32 33 33 33 33 33 32 31 31 31 30 30 29 29 29 30 29
15 15 15 15 16 16 17 17 18 19 19 19 20 20 21 22 23 24 25 26 27 28 31 33 36 37 38 40 41 41 41 42 42 43 43 44 44 44 44 44 44 44 45 46 46 46 45 45 45 46 47 48 49 49 48 47 45 43 42 42 41 41 40 40 40 39 39 38 37 35 34 34 34 34 34 34 33 32 32 32 31 31 30 31 31 32 32
17 17 17 18 18 18 19 20 20 20 21 21 21 21 21 22 23 24 25 26 26 27 29 31 33 35 37 38 39 40 40 41 42 44 45 46 47 47 48 48 47 47 46 46 47 47 47 46 45 44 45 46 48 49 50 50 49 47 45 44 44 44 43 43 43 42 42 41 40 39 38 37 37 36 36 36 35 35 34 34 34 33 33 33 34 34 35
18 19 19 20 20 21 21 22 22 23 23 23 24 24 24 24 25 25 26 27 27 28 29 30 31 33 35 36 37 38 39 40 41 42 43 44 45 47 48 49 49 49 48 47 47 47 48 48 47 46 45 45 46 46 47 49 50 50 49 47 46 45 45 45 45 45 45 45 44 43 42 41 40 40 40 39 39 38 38 38 38 37 37 37 37 37 37
20 21 21 22 23 23 24 24 24 25 25 25 26 26 26 27 27 27 28 28 29 30 31 31 32 33 34 35 36 37 38 39 40 41 42 42 43 44 46 47 48 48 47 47 47 47 48 48 47 47 47 47 47 47 47 47 48 49 50 50 49 48 47 47 47 47 47 47 47 47 46 45 45 44 44 44 43 43 43 43 42 42 42 41 41 40 40
21 22 23 24 25 25 26 26 27 28 28 29 29 29 28 29 29 30 30 31 31 32 32 33 34 34 35 36 37 38 39 40 41 42 43 43 43 43 45 46 47 47 46 46 46 47 48 49 49 48 48 48 49 50 50 50 50 49 50 50 51 51 50 50 50 50 49 49 49 49 49 49 48 48 48 48 48 48 47 47 47 46 46 46 45 45 44
22 23 24 25 26 26 27 28 29 30 31 31 32 33 33 33 33 33 33 34 34 34 34 35 35 36 37 38 38 39 40 41 42 42 43 43 43 44 44 46 46 47 46 46 46 46 47 48 49 49 49 49 50 50 52 53 53 53 52 52 51 52 52 52 52 52 52 52 52 52 52 51 51 51 50 50 50 50 50 50 50 49 49 49 49 48 48
23 24 25 26 27 28 29 30 31 32 33 34 35 36 37 37 38 38 38 38 38 38 38 38 38 38 39 40 41 41 42 43 43 43 43 43 44 44 45 45 46 46 46 46 46 46 46 46 47 48 48 49 49 50 51 52 54 55 55 55 54 54 53 53 53 53 53 53 54 54 54 54 54 54 53 53 52 52 51 51 51 51 51 51 51 51 51
24 25 26 27 28 29 31 32 33 34 35 36 37 39 40 40 41 42 42 42 42 43 43 43 42 42 42 42 42 43 43 44 44 44 44 45 45 46 46 46 46 46 46 46 46 47 47 47 47 47 47 47 48 48 49 50 52 54 55 56 56 56 56 55 55 55 54 54 54 54 54 55 55 56 56 56 55 55 54 54 54 54 53 53 53 53 53
26 27 28 29 30 31 32 33 34 35 36 38 39 40 41 42 43 44 45 45 45 46 46 46 47 47 46 46 46 45 45 45 45 46 46 47 47 48 48 48 48 48 47 47 47 48 48 48 48 48 48 48 48 48 49 49 50 51 53 54 54 55 55 55 56 56 56 56 56 56 56 56 56 56 57 57 57 57 57 57 57 57 57 57 56 56 56
27 28 29 31 32 33 34 35 36 37 39 40 41 42 43 44 45 46 46 47 47 48 47 48 48 48 48 49 49 49 48 48 47 47 48 49 49 50 50 49 49 49 49 49 49 49 48 48 49 49 50 50 50 50 50 50 50 51 52 53 54 54 54 55 55 55 56 56 56 56 57 57 57 57 57 57 58 58 58 58 59 59 59 59 59 59 59
27 28 29 30 31 32 34 35 36 38 39 40 42 43 44 45 46 47 48 48 49 49 50 50 49 49 49 49 49 50 50 50 50 50 50 50 50 50 51 51 51 51 51 51 51 51 50 50 49 50 50 50 51 52 52 52 52 52 52 53 54 55 55 56 56 56 56 56 56 56 57 57 57 58 58 58 58 58 58 58 58 58 59 59 59 60 59
27 28 30 31 33 34 35 37 38 39 40 42 43 44 45 46 47 48 49 49 49 49 50 50 51 51 51 50 50 51 51 51 51 52 52 51 51 51 51 51 51 52 53 53 52 52 52 51 51 51 51 50 51 51 52 53 54 54 54 55 55 56 56 57 57 57 58 57 57 57 57 57 57 57 58 58 58 58 58 58 58 58 58 58 58 58 57
30 31 32 34 35 37 38 40 41 42 44 45 46 47 47 48 48 49 50 50 51 50 50 50 50 51 51 51 51 51 51 51 51 52 52 52 52 52 52 52 52 52 53 53 53 52 52 52 52 52 52 52 52 52 52 52 53 54 55 56 57 57 57 58 58 58 59 59 59 59 59 59 59 58 58 58 58 59 59 59 59 59 59 58 58 58 57
32 33 34 36 37 39 40 42 43 44 45 47 48 48 49 50 51 51 51 51 52 52 52 52 51 51 51 51 51 51 51 51 51 51 52 52 52 51 51 52 52 52 52 52 53 53 52 52 52 52 53 53 53 53 52 53 53 54 55 56 56 57 58 58 59 59 59 59 59 60 60 60 60 60 60 60 60 60 60 60 60 60 60 60 60 59 59
33 34 36 37 39 40 41 42 43 43 44 44 45 46 47 48 49 50 51 51 52 53 53 53 53 52 52 52 52 52 52 52 51 51 51 51 51 50 49 50 51 51 50 51 52 52 52 52 53 53 53 53 53 53 53 53 54 55 56 56 56 56 57 58 58 59 60 60 60 60 60 60 60 60 61 61 61 61 61 61 61 61 61 61 61 61 61
34 36 37 39 40 41 42 42 42 41 41 41 41 42 43 44 45 46 48 49 50 51 52 52 53 52 52 52 52 52 53 53 53 52 51 51 51 50 50 51 51 50 49 49 50 51 51 52 52 53 53 53 53 52 52 52 53 55 56 56 56 57 57 57 57 58 59 59 60 60 60 60 61 61 62 61 61 61 61 61 61 61 61 62 62 62 62
36 38 39 40 41 41 41 40 40 39 39 40 41 41 42 43 43 44 45 46 47 49 50 50 51 51 51 52 52 52 52 52 53 53 52 51 51 51 51 51 52 52 52 52 52 52 51 51 51 51 52 53 53 53 52 52 52 53 54 54 55 56 57 57 57 57 58 58 58 59 59 59 60 60 61 61 61 62 61 61 61 61 61 61 61 62 62
38 39 40 40 40 39 38 37 37 38 39 39 40 40 41 41 42 42 42 43 44 45 47 48 48 49 49 50 50 51 51 52 52 53 53 52 52 52 52 52 51 51 52 52 53 53 52 51 50 49 49 49 50 51 52 53 54 54 53 53 54 54 55 56 56 56 56 57 57 57 58 58 58 58 58 58 58 59 59 60 60 61 61 61 62 62 62
39 39 39 39 37 36 36 36 37 38 38 38 38 37 37 37 38 39 40 41 41 43 44 45 46 46 47 48 48 48 49 50 50 51 52 52 52 52 52 52 52 52 52 52 52 52 51 51 50 50 49 49 49 50 51 52 53 54 54 54 54 54 53 54 54 55 55 55 55 56 57 57 57 57 57 56 56 55 55 55 56 57 58 59 60 61 61
39 39 38 37 36 35 35 36 37 38 38 37 36 35 34 34 35 37 38 40 41 42 43 43 44 45 45 46 46 46 46 47 48 48 50 51 51 51 51 51 51 52 52 52 51 51 50 50 50 51 51 51 52 52 53 53 53 53 53 54 54 54 53 53 53 54 54 54 54 54 54 55 55 56 56 56 55 55 54 54 53 53 53 54 55 56 57
40 39 38 36 34 34 35 36 37 37 36 35 34 33 33 33 33 33 34 36 38 39 41 42 43 44 45 45 46 46 46 45 45 45 46 47 48 49 49 50 50 50 51 51 50 50 49 49 49 50 50 51 51 52 52 52 51 51 51 52 53 53 52 52 52 53 53 54 54 54 53 53 53 53 54 54 54 54 54 54 53 53 52 52 52 53 54
40 38 37 35 34 34 35 36 35 34 33 32 31 31 31 32 32 33 34 35 36 37 38 38 39 40 42 44 46 46 45 44 43 43 43 44 45 45 46 47 48 49 49 50 49 49 48 47 47 47 48 49 49 49 49 48 48 49 50 50 51 51 51 50 50 51 52 52 53 53 53 52 52 52 52 52 53 53 53 53 53 53 53 52 52 52 52
39 37 35 34 33 34 34 33 31 30 29 29 29 30 31 33 34 35 36 38 39 40 40 40 39 39 39 40 42 43 43 42 41 40 40 40 40 41 42 43 44 45 46 47 48 48 48 47 47 46 46 46 46 46 47 47 47 48 49 50 50 50 50 49 48 48 49 50 50 50 51 51 51 52 52 51 52 52 53 53 53 53 53 52 52 52 52
38 35 33 33 33 33 33 30 28 26 27 28 29 31 33 34 35 36 36 37 38 39 39 40 41 41 39 38 38 39 40 40 38 37 36 36 36 36 36 37 38 39 40 41 43 45 46 47 47 47 46 45 44 45 45 46 46 46 47 48 49 50 50 49 48 48 48 48 48 48 49 49 50 50 51 51 51 51 52 52 53 53 53 53 52 52 52
36 33 31 31 32 32 30 27 25 24 25 28 30 32 34 35 36 36 36 37 37 38 38 38 39 40 40 40 38 37 37 37 36 35 34 34 34 33 33 33 34 35 36 37 38 40 41 43 44 46 46 45 45 44 44 44 45 45 45 46 48 49 49 49 48 48 48 48 48 48 48 49 49 50 50 49 49 49 50 51 51 51 52 52 52 53 53
34 31 30 30 31 29 27 24 23 24 25 28 31 33 34 33 33 33 33 34 34 36 37 37 37 37 38 39 39 38 36 36 35 34 33 32 32 31 31 31 32 32 33 33 35 36 37 38 40 42 43 44 44 44 44 44 44 44 45 45 46 47 47 47 47 47 47 47 47 46 46 47 48 49 49 49 49 49 50 50 50 49 49 50 50 51 52
32 30 29 30 29 27 24 22 22 23 25 28 30 30 29 27 26 26 26 27 28 29 30 33 34 34 34 35 37 37 37 36 35 33 32 32 32 31 31 30 30 30 31 32 34 34 35 35 36 37 39 41 42 43 43 43 43 44 44 45 45 46 47 47 46 46 46 46 46 45 45 45 45 46 47 48 49 50 50 51 50 49 48 48 48 49 50
31 28 28 29 28 25 22 21 21 22 24 26 27 26 25 22 21 22 23 21 20 20 21 23 27 28 28 28 31 33 34 34 34 33 32 32 31 30 28 27 28 28 29 30 31 31 32 32 33 34 36 37 38 40 40 41 41 41 42 42 43 44 45 45 45 45 45 45 45 45 45 45 45 46 46 47 48 49 50 50 50 49 48 48 48 48 48
29 27 27 28 27 23 21 20 20 21 23 24 23 22 23 23 21 20 20 16 9 7 9 12 18 21 22 23 25 27 28 29 30 30 31 31 30 29 27 27 27 27 27 27 29 30 30 30 31 32 33 34 35 36 37 38 38 39 39 40 40 41 41 42 43 43 44 44 45 45 46 46 46 47 48 49 49 50 49 49 49 49 49 48 48 49 49
28 26 26 27 26 22 19 19 19 19 20 21 20 20 22 23 22 20 17 12 6 2 4 8 12 15 17 20 23 24 25 25 26 28 29 30 30 30 29 28 28 27 27 28 29 29 28 28 29 30 31 32 33 34 35 35 36 37 37 37 38 39 39 40 40 40 40 41 41 42 43 44 44 45 46 47 48 48 48 48 48 48 49 49 49 49 49
27 25 25 26 25 21 18 17 18 18 18 19 18 18 18 20 21 19 16 12 7 4 3 5 8 10 13 17 21 23 24 25 26 27 28 29 30 31 31 30 30 29 28 28 27 26 24 24 24 25 26 27 29 30 31 32 33 33 34 34 34 35 36 37 37 37 37 38 39 40 42 43 43 43 44 44 45 46 46 47 47 48 48 48 48 49 49
26 25 24 25 24 21 18 17 17 16 16 16 16 16 16 16 16 16 14 12 9 6 4 1 2 5 9 13 16 19 21 23 24 26 28 29 30 30 29 28 28 27 27 26 25 22 21 20 20 20 20 21 22 23 25 27 29 30 31 32 32 33 33 33 34 34 35 35 37 38 40 42 43 44 44 44 45 45 45 46 46 46 47 47 47 47 47
26 24 23 24 23 21 18 17 16 16 15 15 15 15 15 14 12 11 10 10 9 6 4 1 1 4 7 10 13 15 17 19 21 24 26 25 24 23 21 20 20 20 21 22 22 22 21 21 20 20 20 20 21 21 22 23 25 26 28 29 29 30 30 30 31 31 32 33 34 35 36 37 39 40 41 42 42 43 43 44 44 45 45 45 46 46 46
Wind_Direction
200 198 201 204 206 207 210 213 215 217 218 218 219 220 222 226 229 229 230 231 231 231 232 232 233 234 234 235 237 237 236 237 239 240 240 242 244 247 249 251 253 253 248 243 244 246 246 245 245 244 242 240 238 236 235 234 235 235 234 233 233 233 234 235 235 235 234 233 233 235 237 236 234 232 230 229 229 232 234 235 235 235 234 233 232 229 228
204 202 202 204 207 209 211 213 216 218 221 221 220 221 222 224 228 230 230 232 233 231 231 232 234 236 238 240 243 245 245 246 248 249 250 252 253 254 253 254 256 257 252 244 241 242 242 242 241 242 243 244 242 241 241 240 239 238 237 234 233 234 235 237 238 238 236 234 234 236 237 238 237 236 235 233 231 230 232 236 239 240 241 241 239 237 235
203 204 205 205 207 211 212 215 217 219 222 224 223 223 223 224 226 229 230 232 234 234 233 232 233 235 238 240 242 245 248 251 253 255 256 257 258 260 261 260 259 258 253 247 243 241 242 244 243 241 242 244 245 246 247 247 247 246 243 238 235 235 236 238 240 241 240 239 238 237 239 241 241 240 239 239 237 234 233 235 237 240 242 244 244 244 242
204 202 204 206 208 211 214 217 220 221 223 225 225 225 225 225 225 227 230 231 234 237 236 235 235 235 236 238 240 243 245 249 252 254 256 258 259 262 265 264 260 254 250 247 245 242 241 243 244 243 241 242 244 246 248 249 249 249 246 242 240 239 237 237 240 242 244 244 242 240 241 244 246 245 243 241 240 237 235 234 235 236 238 240 241 242 242
217 206 203 205 209 211 214 217 220 223 226 227 228 228 227 227 227 227 229 230 231 235 238 238 237 238 239 240 243 246 247 249 252 254 256 258 260 263 265 263 257 252 248 245 243 241 239 240 241 242 241 241 242 245 247 247 247 247 245 242 243 244 242 240 241 243 244 247 248 247 246 246 247 247 247 245 242 238 235 234 234 235 235 235 236 236 237
229 220 209 206 208 210 213 218 221 224 226 228 229 229 230 230 229 229 229 231 231 233 236 237 236 237 239 242 244 247 249 251 253 255 257 259 261 264 264 259 253 251 250 247 242 239 239 240 239 240 241 241 241 244 245 246 246 248 245 242 243 246 245 243 243 243 245 248 250 251 251 250 247 245 246 246 244 240 237 235 235 235 235 235 235 235 235
240 236 223 214 210 209 210 215 219 221 224 226 227 229 230 231 231 231 230 231 233 233 234 237 237 238 239 241 243 245 248 250 253 255 256 258 259 260 259 255 251 250 250 248 243 240 241 242 242 242 242 242 242 244 246 248 250 252 250 248 248 250 250 246 244 243 245 248 250 250 251 251 247 244 244 246 244 241 237 235 234 234 236 237 236 237 237
245 247 239 230 224 218 213 214 217 219 220 222 223 223 226 230 232 233 232 233 234 235 235 237 239 240 241 242 242 244 247 249 251 253 254 256 257 258 257 255 252 249 247 245 242 241 241 242 243 243 243 243 243 245 247 250 252 252 252 252 251 249 249 249 246 244 245 247 250 249 247 246 244 241 241 243 244 241 238 237 234 233 235 236 237 238 239
241 246 245 242 240 236 230 224 220 219 219 220 219 219 221 225 229 233 234 235 236 237 238 238 239 241 241 241 241 243 245 247 249 251 253 255 258 259 258 257 254 248 245 244 242 240 241 242 244 245 245 245 244 246 248 250 250 250 250 252 250 246 247 249 248 246 245 245 246 247 246 245 244 240 239 241 243 241 239 239 237 235 235 236 236 237 237
243 245 246 246 246 244 241 236 228 222 220 219 219 220 221 223 225 229 232 234 236 237 238 239 240 241 241 243 244 243 243 245 248 250 253 255 257 258 258 258 254 247 244 244 242 240 240 241 242 244 246 247 246 246 247 249 249 248 249 251 251 248 247 249 247 245 244 242 241 243 245 246 244 242 241 243 244 241 238 239 240 238 238 237 236 236 236
246 246 246 246 247 247 246 243 240 235 229 222 219 221 225 227 226 228 231 232 234 236 237 238 240 241 241 241 240 234 234 240 245 248 251 252 254 255 256 255 252 248 245 244 244 243 241 241 241 243 244 246 247 247 247 248 248 248 248 250 251 250 250 249 248 248 246 243 240 241 244 244 244 244 244 244 243 240 238 240 242 242 240 240 239 238 237
245 247 247 247 248 249 249 249 248 246 245 241 233 230 232 232 231 232 233 232 233 235 236 236 238 240 239 236 231 226 226 235 242 245 248 249 250 251 252 252 251 249 248 246 246 245 245 243 243 243 245 246 246 247 247 247 248 248 247 249 250 251 252 251 251 252 250 246 246 248 250 250 249 246 247 250 249 245 242 243 244 243 241 240 241 240 239
243 246 247 249 250 251 251 251 251 249 249 248 244 241 240 237 234 233 234 234 234 235 238 239 240 239 237 234 235 237 239 240 241 243 245 246 248 249 249 250 251 251 251 250 248 247 247 247 246 245 246 247 247 247 248 248 248 247 247 247 247 248 250 251 252 251 250 249 253 256 257 257 255 248 246 252 257 259 258 253 248 244 239 238 240 241 241
237 240 244 247 249 251 251 249 249 247 245 244 244 244 244 243 240 236 233 231 232 233 236 240 241 240 239 238 238 240 240 238 238 240 242 243 245 246 247 249 250 250 251 251 250 249 249 249 248 247 247 247 248 249 249 249 249 248 247 246 246 245 246 249 251 252 251 251 254 255 255 257 257 253 249 249 251 256 258 258 258 250 238 234 239 242 243
231 233 236 240 243 247 250 248 245 243 241 241 242 243 243 243 245 243 236 230 227 228 231 236 238 238 238 237 236 236 237 238 239 241 243 243 243 243 244 246 247 248 249 249 249 249 249 249 249 249 248 248 249 249 250 249 249 249 248 247 246 245 244 245 248 249 249 250 251 251 251 252 255 256 255 254 255 259 260 258 258 257 247 239 242 245 246
230 231 232 235 238 242 245 247 245 243 241 239 239 239 241 242 243 245 244 236 230 228 229 233 237 237 235 234 233 234 238 241 242 245 247 247 247 246 245 246 246 246 246 246 246 246 248 248 249 250 250 249 249 249 250 250 249 248 247 247 246 246 245 244 245 246 245 246 247 248 247 247 250 255 256 256 256 259 261 259 255 253 252 252 252 253 252
235 236 236 237 237 238 241 244 245 244 242 239 237 237 239 241 241 243 245 244 240 236 233 232 235 236 236 236 235 234 237 241 244 247 249 250 250 249 249 248 249 248 247 246 246 246 247 248 249 250 250 250 248 247 247 248 248 248 247 247 246 246 246 246 246 246 245 244 244 245 245 244 246 249 252 252 250 249 251 253 252 250 251 252 254 255 254
242 242 243 243 242 242 243 245 247 248 246 243 240 238 237 238 239 239 241 243 245 244 242 239 237 237 238 240 240 239 240 242 245 247 249 250 251 250 250 250 250 251 250 249 248 247 247 248 248 248 249 250 249 248 246 245 245 245 247 248 248 248 247 247 248 249 249 247 245 244 244 244 244 245 246 247 246 245 246 249 250 250 250 250 252 253 254
248 248 248 248 249 248 249 249 249 251 250 248 245 243 240 239 240 240 240 241 242 243 244 244 243 242 241 241 242 242 242 243 244 246 248 249 250 251 251 250 250 251 251 250 248 247 247 247 247 247 248 248 249 250 249 247 246 245 246 248 249 250 250 250 250 250 250 250 248 246 245 245 245 245 246 247 247 247 247 249 250 250 250 249 250 251 253
252 251 250 250 251 251 251 252 252 252 252 251 249 246 244 242 242 242 243 243 243 242 243 243 244 245 244 244 244 244 245 245 246 247 248 249 250 251 251 251 250 250 250 249 248 247 246 246 246 247 247 247 247 248 250 251 250 249 249 249 250 251 252 252 252 252 252 252 251 249 247 246 246 246 247 249 250 251 251 251 252 252 251 251 250 250 250
254 254 254 253 253 252 251 252 253 253 254 254 253 251 249 246 244 243 243 244 244 244 244 244 244 245 245 245 246 246 247 248 248 249 249 249 250 251 251 251 251 251 250 251 250 249 248 248 248 248 248 248 248 248 249 250 252 252 251 250 249 250 251 251 252 252 252 252 252 251 250 249 248 248 248 249 251 254 255 255 255 255 255 254 253 253 254
256 257 257 257 257 256 256 254 254 254 254 254 254 253 252 251 249 247 245 244 243 243 243 244 244 245 246 247 247 248 249 250 250 250 250 250 250 251 252 252 252 252 252 251 251 251 250 250 249 249 249 250 250 250 250 250 251 251 251 250 248 248 247 248 249 249 250 251 252 252 252 252 251 251 251 251 251 253 255 256 257 257 257 257 256 256 257
259 258 258 258 258 258 258 258 257 256 256 255 255 255 254 254 253 252 250 249 247 245 244 244 244 244 245 246 247 249 250 250 251 252 252 251 250 250 251 252 253 252 251 250 250 250 250 250 250 250 250 250 250 251 251 251 251 251 251 250 249 247 246 245 245 245 246 248 249 251 252 253 253 253 253 254 253 253 254 254 255 256 257 257 258 258 258
259 259 258 258 258 258 258 258 258 257 257 256 255 255 256 256 256 255 254 253 252 251 250 249 248 248 247 246 246 247 249 249 250 251 252 252 252 251 251 251 252 252 252 251 250 250 250 250 250 250 249 249 250 250 250 250 251 251 251 250 249 248 247 246 245 244 244 245 246 248 250 252 253 253 254 254 255 255 254 254 254 254 255 256 256 257 257
261 260 260 259 259 259 259 259 258 258 258 257 256 255 255 256 257 257 257 255 254 253 253 252 252 251 251 250 249 249 249 249 250 250 251 252 253 252 252 251 252 252 253 253 252 252 252 252 252 251 250 250 249 249 249 250 250 251 251 251 251 251 250 249 248 247 247 246 247 247 248 249 250 252 252 252 253 254 254 254 254 254 254 254 254 255 256
268 266 265 264 263 262 261 261 261 261 260 260 260 259 258 257 256 257 257 257 257 256 256 255 254 253 253 252 252 251 251 251 251 251 251 252 252 252 252 252 252 252 253 253 253 253 253 253 253 253 252 251 250 250 250 250 250 250 251 252 252 252 252 251 251 250 249 249 248 248 248 248 249 249 250 250 251 251 252 253 254 254 254 254 254 254 254
275 274 272 271 269 267 266 265 264 263 263 262 262 261 261 260 259 258 257 257 257 258 258 258 258 257 256 255 254 253 252 252 252 252 252 252 251 251 251 252 252 253 253 253 253 253 252 252 252 252 252 252 251 251 250 250 249 250 250 251 252 252 253 253 252 252 251 250 250 249 248 248 248 248 249 249 250 250 251 251 252 254 255 255 255 255 255
279 278 277 276 274 273 272 271 269 268 266 264 263 262 261 260 260 259 259 258 257 257 257 257 258 258 258 258 257 256 255 253 252 252 252 251 251 251 251 252 252 252 252 252 252 252 252 251 251 251 251 251 251 251 251 250 250 250 250 251 251 252 252 253 253 253 252 252 252 251 250 249 249 249 249 249 250 250 251 251 251 252 253 253 254 255 256
280 279 278 278 277 276 276 275 274 273 271 270 268 266 264 262 261 259 259 258 258 257 256 256 256 256 256 257 257 257 256 255 254 252 251 250 251 252 252 252 252 253 253 252 252 251 251 251 251 250 250 250 250 250 251 250 250 250 250 251 252 252 253 253 253 253 253 253 253 253 253 252 252 252 251 251 251 251 252 252 252 252 252 252 252 253 253
280 280 280 279 279 278 277 277 276 275 274 273 272 270 269 267 265 263 261 259 258 257 257 256 255 254 254 253 253 254 254 254 254 253 251 250 250 250 251 252 252 252 252 252 252 251 251 250 250 250 250 250 250 250 250 250 250 250 250 250 251 252 253 254 254 254 254 254 254 254 254 254 254 255 255 255 255 254 254 254 254 254 254 254 254 253 253
283 283 282 281 281 280 279 279 278 276 275 274 273 271 270 269 267 266 264 262 260 258 257 256 254 254 253 252 251 251 251 251 252 252 252 252 251 250 250 250 250 251 251 251 252 252 252 251 251 251 250 249 249 249 250 250 251 250 250 250 250 251 252 253 254 255 256 256 255 255 255 255 255 256 256 257 257 257 257 257 257 257 256 256 256 256 255
287 286 285 284 283 283 282 281 280 278 277 275 274 272 270 269 267 266 265 263 262 260 258 256 254 253 252 251 251 251 250 249 249 249 250 251 251 251 250 249 248 248 249 250 250 250 251 251 251 251 251 251 250 249 249 250 251 251 251 251 251 251 252 253 253 254 255 256 257 257 257 256 256 256 257 257 258 259 259 259 260 260 260 259 259 259 259
290 289 288 288 286 285 284 283 281 280 278 276 275 273 271 269 267 266 264 263 262 260 259 257 255 253 252 250 250 250 249 249 248 247 248 248 249 250 251 252 251 250 249 250 250 250 250 250 251 251 251 251 251 250 250 250 251 252 252 252 252 252 253 253 254 254 255 256 256 257 257 258 258 258 258 258 258 258 259 260 261 261 262 262 262 262 262
294 293 292 292 291 290 288 286 284 282 280 278 277 275 273 271 269 267 265 263 261 260 259 258 256 255 253 251 249 248 248 248 248 247 247 246 246 246 248 250 251 252 251 251 251 250 249 249 250 250 250 250 251 251 251 250 250 251 252 252 253 253 254 254 255 255 255 256 256 256 257 258 258 259 259 259 258 258 259 259 260 261 262 262 263 263 263
298 298 298 298 297 296 294 291 289 286 284 282 280 278 276 274 272 269 267 264 262 260 258 257 256 255 254 252 251 249 248 247 247 247 246 246 245 245 244 245 246 247 248 248 249 249 249 249 249 249 250 250 250 250 250 250 250 250 250 251 252 253 254 254 255 255 256 256 257 257 257 257 258 258 259 259 259 259 260 260 260 261 261 261 262 262 263
304 304 304 303 301 298 295 292 290 288 287 286 284 282 279 276 273 270 267 265 263 261 259 257 256 255 254 253 252 250 248 247 246 246 246 246 245 245 244 244 245 245 245 246 247 248 249 250 250 250 250 250 251 250 250 249 249 249 249 250 251 252 253 254 254 255 255 256 256 257 257 258 258 258 258 259 259 259 260 260 261 261 261 261 262 262 262
307 307 305 303 300 297 293 290 288 288 287 286 284 281 278 275 272 270 267 265 262 261 259 258 256 255 254 253 252 251 249 248 246 245 245 245 244 244 244 244 244 245 245 246 247 248 249 250 251 251 251 251 251 251 250 250 249 249 249 249 250 251 253 253 254 254 254 255 255 256 256 256 257 258 258 258 259 259 259 260 260 260 261 261 262 262 263
308 308 306 304 300 296 294 292 292 291 290 288 285 281 277 273 271 269 267 265 263 260 258 257 256 255 254 253 252 251 250 249 247 245 244 244 243 243 243 243 243 244 244 245 246 247 248 248 249 250 251 252 253 253 252 252 251 251 250 250 250 251 252 253 254 254 254 255 255 255 255 255 256 256 257 257 258 258 259 259 259 260 260 260 261 261 262
311 310 309 305 301 298 296 296 296 295 294 291 287 283 278 274 270 268 266 265 264 262 259 257 255 254 253 252 251 250 249 248 248 247 245 244 243 243 242 242 243 243 244 245 246 247 248 248 248 249 250 251 252 254 254 254 254 254 254 253 252 252 253 253 254 254 254 254 254 254 255 255 256 256 256 256 257 257 258 259 259 260 260 260 261 261 261
314 313 310 307 303 302 301 301 300 298 295 292 288 285 281 277 273 270 267 266 264 263 261 259 257 255 253 251 250 250 249 248 247 247 246 245 244 243 243 243 243 243 243 244 245 246 247 247 248 249 249 250 251 253 255 256 258 258 258 257 255 254 254 254 254 254 254 254 254 254 255 255 256 256 257 257 257 257 258 258 259 260 260 261 261 261 262
316 314 311 308 307 306 305 304 301 298 295 292 290 288 285 282 279 275 272 268 265 263 261 260 258 256 253 251 250 249 248 248 248 247 246 246 245 245 244 244 244 244 244 244 244 245 246 247 248 249 249 250 251 252 253 255 256 256 257 257 257 256 255 254 254 254 255 255 255 255 255 255 255 256 257 258 258 258 258 259 259 259 260 260 261 261 261
318 315 312 310 309 308 307 304 300 296 294 294 293 291 289 287 284 280 276 271 267 263 260 257 255 253 252 251 249 248 247 246 246 246 245 245 245 245 245 245 246 246 246 246 246 246 247 247 248 249 250 251 252 252 252 252 253 253 255 256 257 257 257 255 254 254 254 255 255 255 255 255 255 256 256 257 258 258 258 259 259 259 260 260 260 260 261
319 316 313 311 310 309 308 304 300 298 298 299 298 297 295 291 288 284 279 274 269 264 260 255 251 249 248 247 246 245 244 243 243 243 244 244 244 244 246 246 247 247 247 247 248 248 248 248 249 250 251 252 252 252 251 251 251 252 253 254 255 257 257 257 256 255 254 255 255 256 256 256 256 256 256 256 257 258 258 259 259 259 259 260 260 260 260
319 316 313 312 312 311 308 304 303 304 306 306 305 303 300 296 291 286 281 275 270 265 260 256 251 246 244 242 242 241 241 241 240 240 241 241 241 242 244 246 247 247 247 248 248 249 248 248 249 250 251 252 252 252 252 251 251 251 251 251 252 254 256 257 257 256 256 255 256 256 257 257 256 256 256 257 258 259 259 259 259 259 259 260 260 260 260
319 316 314 314 314 312 309 306 308 310 312 312 312 311 307 302 297 292 286 279 272 265 259 254 249 245 242 240 238 237 238 238 238 237 238 239 240 241 243 245 246 247 248 248 249 249 249 249 249 249 250 251 252 252 252 252 252 251 251 251 251 252 253 254 255 255 255 255 255 256 257 257 256 256 256 257 258 259 259 259 259 259 260 260 260 260 260
319 317 316 317 317 314 310 310 312 314 316 318 320 321 319 315 311 307 299 286 274 266 258 250 244 241 239 238 236 235 235 236 236 235 235 237 237 237 239 243 246 247 247 248 248 248 249 250 249 249 250 250 251 251 251 252 252 252 252 252 252 252 253 254 254 254 254 254 254 254 255 256 255 255 255 256 257 258 258 258 258 258 259 260 261 261 261
321 319 319 321 320 316 312 313 315 317 319 323 327 332 333 330 326 325 319 304 282 267 256 243 233 230 231 233 232 231 232 233 234 234 234 236 238 238 239 242 245 246 246 247 247 247 248 248 249 249 249 249 249 250 250 251 251 251 252 252 252 252 253 253 254 253 253 252 252 252 253 254 255 256 256 256 256 256 256 256 256 257 258 259 260 260 260
322 320 321 324 324 319 315 316 318 319 322 326 331 338 343 344 341 340 340 335 313 265 235 219 213 215 220 224 225 224 226 229 232 232 231 233 236 238 240 242 244 244 242 243 245 248 250 250 250 250 249 249 249 249 249 249 249 250 250 251 251 251 251 252 252 253 252 251 251 251 252 253 254 256 256 256 256 256 255 256 256 256 257 258 259 259 259
324 323 324 327 326 321 316 317 319 320 323 327 331 337 344 350 352 354 354 357 9 70 141 168 183 198 212 217 217 217 219 225 230 230 228 228 230 234 238 243 245 244 242 242 246 250 252 252 251 251 250 250 251 250 250 250 250 250 251 251 251 251 252 252 253 254 254 253 252 251 251 252 253 254 255 255 255 255 255 254 254 255 256 257 257 258 259
327 326 326 328 328 323 318 318 320 321 322 326 330 334 340 346 353 359 4 10 21 45 99 158 182 202 216 219 217 217 220 225 228 227 226 225 228 232 237 242 244 245 244 244 246 248 248 248 248 250 250 251 251 251 251 251 251 251 251 252 252 253 253 254 254 255 255 255 253 252 252 253 253 254 254 254 255 254 254 254 254 255 255 256 257 258 259
330 328 327 329 329 326 319 317 319 321 320 322 327 334 340 343 346 353 2 11 22 33 41 61 186 205 213 216 216 217 219 223 225 226 227 229 233 237 239 241 241 241 239 237 236 237 239 241 244 246 248 250 251 252 251 251 251 250 251 252 253 253 254 254 255 255 256 255 255 254 255 255 255 255 255 255 255 254 254 255 255 256 256 257 258 259 260
331 329 328 329 330 329 323 316 315 319 322 323 325 332 340 343 342 339 342 352 7 24 33 20 219 198 198 202 206 211 218 224 228 230 232 233 232 231 229 226 225 224 224 225 228 232 237 241 244 246 248 251 252 253 253 252 251 251 251 251 251 251 252 253 254 255 256 256 257 257 257 257 257 257 257 257 256 256 256 256 257 257 258 259 259 260 261
Height
5803 5806 5809 5812 5814 5817 5819 5822 5825 5827 5830 5833 5836 5839 5842 5844 5847 5850 5853 5856 5859 5862 5865 5868 5870 5872 5874 5876 5878 5880 5882 5884 5886 5888 5890 5892 5893 5894 5895 5896 5897 5899 5900 5901 5902 5903 5904 5904 5905 5906 5907 5908 5909 5910 5912 5913 5914 5914 5915 5917 5919 5921 5922 5923 5925 5926 5927 5927 5928 5928 5930 5931 5932 5933 5934 5935 5937 5938 5940 5942 5943 5944 5945 5945 5946 5947 5948
5802 5804 5807 5810 5813 5816 5818 5821 5823 5825 5828 5830 5833 5836 5839 5842 5845 5847 5851 5853 5856 5859 5862 5865 5867 5869 5871 5873 5875 5877 5879 5881 5883 5885 5887 5889 5890 5891 5893 5893 5894 5895 5897 5899 5901 5902 5902 5903 5904 5905 5906 5906 5907 5908 5909 5910 5911 5911 5912 5915 5917 5918 5919 5921 5922 5923 5923 5924 5925 5926 5926 5928 5929 5930 5931 5932 5934 5935 5937 5939 5941 5943 5944 5945 5945 5946 5947
5801 5803 5805 5808 5811 5814 5817 5819 5821 5823 5825 5828 5831 5834 5836 5839 5842 5845 5848 5851 5853 5856 5859 5862 5865 5867 5869 5871 5873 5874 5876 5878 5880 5882 5884 5885 5887 5888 5889 5890 5891 5892 5893 5895 5897 5899 5900 5901 5902 5903 5903 5904 5905 5907 5908 5908 5908 5909 5910 5913 5914 5915 5916 5917 5918 5919 5920 5922 5923 5923 5924 5925 5926 5927 5929 5931 5932 5934 5935 5936 5938 5940 5942 5944 5944 5945 5946
5799 5801 5803 5806 5808 5811 5814 5817 5819 5821 5823 5825 5828 5831 5834 5837 5840 5842 5845 5848 5851 5853 5856 5859 5862 5864 5866 5868 5870 5871 5873 5875 5877 5879 5880 5882 5883 5885 5886 5887 5888 5889 5890 5891 5893 5895 5896 5898 5899 5900 5901 5901 5903 5904 5905 5906 5906 5905 5906 5909 5911 5911 5912 5913 5914 5916 5917 5919 5920 5920 5921 5923 5924 5924 5926 5929 5930 5931 5932 5933 5935 5936 5938 5940 5941 5942 5943
5797 5799 5801 5803 5806 5809 5811 5814 5817 5819 5821 5824 5826 5829 5831 5834 5837 5839 5842 5845 5848 5850 5852 5856 5858 5861 5863 5865 5867 5868 5870 5872 5873 5875 5876 5878 5879 5881 5883 5884 5885 5886 5887 5888 5889 5891 5892 5894 5896 5897 5897 5898 5900 5900 5901 5903 5903 5902 5903 5905 5906 5907 5908 5910 5911 5912 5913 5915 5917 5918 5919 5920 5921 5922 5923 5925 5927 5928 5928 5929 5931 5932 5933 5934 5936 5938 5939
5795 5797 5799 5801 5803 5806 5808 5811 5814 5817 5819 5822 5824 5826 5828 5831 5833 5836 5839 5842 5845 5847 5849 5851 5854 5857 5860 5862 5864 5865 5866 5868 5869 5871 5872 5874 5876 5878 5879 5881 5882 5883 5884 5885 5886 5887 5888 5890 5892 5894 5894 5895 5896 5897 5898 5899 5899 5899 5900 5902 5903 5903 5904 5905 5907 5908 5910 5911 5913 5914 5915 5916 5917 5919 5920 5921 5922 5924 5925 5926 5927 5928 5929 5930 5932 5933 5934
5792 5794 5797 5799 5801 5804 5806 5808 5811 5814 5816 5819 5821 5823 5825 5827 5830 5833 5836 5838 5841 5844 5846 5848 5850 5853 5856 5858 5860 5861 5862 5864 5865 5867 5869 5870 5872 5874 5876 5878 5880 5881 5882 5882 5883 5884 5885 5887 5889 5890 5891 5893 5893 5894 5895 5896 5896 5897 5898 5899 5900 5901 5902 5902 5903 5905 5906 5908 5909 5911 5912 5911 5912 5914 5915 5916 5917 5919 5920 5921 5922 5924 5926 5927 5929 5930 5931
5790 5792 5795 5797 5799 5801 5803 5806 5808 5811 5813 5816 5818 5820 5822 5825 5827 5830 5833 5835 5837 5839 5842 5845 5847 5850 5852 5854 5856 5857 5858 5860 5862 5863 5865 5866 5868 5870 5873 5875 5876 5878 5879 5880 5881 5881 5882 5883 5885 5886 5888 5889 5890 5891 5892 5893 5894 5895 5896 5897 5898 5899 5899 5899 5900 5901 5903 5904 5905 5907 5908 5908 5908 5909 5910 5911 5911 5913 5915 5916 5917 5920 5922 5924 5925 5927 5928
5789 5791 5793 5795 5796 5798 5801 5804 5806 5808 5810 5813 5815 5817 5820 5822 5825 5827 5829 5832 5834 5836 5839 5842 5843 5846 5848 5849 5850 5852 5854 5855 5857 5859 5861 5862 5864 5866 5869 5871 5873 5875 5876 5877 5878 5879 5880 5881 5882 5883 5884 5885 5886 5887 5889 5890 5891 5893 5893 5894 5895 5896 5896 5896 5898 5898 5899 5900 5901 5902 5903 5904 5904 5905 5906 5907 5907 5909 5910 5911 5913 5916 5918 5920 5922 5923 5924
5787 5789 5791 5792 5794 5796 5799 5801 5803 5806 5808 5810 5813 5816 5817 5819 5821 5823 5826 5828 5831 5833 5836 5838 5840 5841 5843 5845 5845 5845 5847 5850 5852 5854 5856 5858 5860 5862 5864 5866 5869 5871 5872 5874 5875 5876 5877 5878 5879 5880 5881 5882 5883 5884 5885 5886 5888 5889 5890 5891 5892 5893 5893 5894 5895 5896 5896 5897 5897 5898 5899 5900 5901 5901 5902 5903 5903 5904 5906 5908 5910 5912 5915 5916 5917 5918 5919
5785 5787 5789 5790 5792 5794 5796 5798 5800 5803 5805 5807 5810 5812 5814 5816 5818 5820 5822 5824 5827 5829 5831 5833 5835 5836 5838 5839 5839 5838 5840 5844 5847 5849 5851 5853 5855 5857 5860 5862 5864 5866 5868 5870 5872 5873 5874 5875 5875 5876 5877 5878 5879 5880 5881 5883 5884 5886 5887 5887 5888 5889 5890 5891 5892 5892 5893 5894 5894 5895 5896 5896 5897 5898 5899 5899 5900 5901 5903 5904 5906 5908 5911 5912 5912 5913 5915
5784 5785 5787 5788 5790 5791 5793 5795 5797 5800 5802 5804 5806 5808 5810 5812 5815 5817 5819 5821 5823 5825 5827 5829 5831 5831 5832 5833 5834 5835 5836 5839 5842 5844 5847 5849 5851 5853 5855 5857 5859 5861 5863 5866 5867 5869 5870 5871 5872 5873 5874 5874 5875 5876 5877 5879 5880 5882 5883 5884 5885 5886 5887 5888 5888 5889 5890 5891 5892 5893 5893 5894 5894 5895 5895 5896 5898 5899 5900 5901 5902 5904 5906 5907 5907 5909 5911
5782 5783 5785 5786 5787 5789 5790 5793 5794 5797 5800 5801 5803 5805 5807 5809 5812 5813 5815 5817 5819 5821 5823 5825 5826 5827 5828 5829 5831 5832 5834 5836 5838 5840 5842 5844 5847 5849 5851 5853 5854 5856 5858 5860 5863 5864 5866 5867 5868 5869 5870 5871 5872 5873 5874 5875 5876 5878 5879 5880 5881 5882 5883 5884 5885 5886 5887 5888 5890 5891 5891 5891 5892 5893 5894 5894 5896 5896 5896 5897 5899 5899 5901 5902 5902 5904 5905
5781 5782 5783 5784 5785 5786 5788 5790 5792 5794 5796 5797 5799 5802 5804 5806 5807 5809 5811 5813 5815 5817 5819 5820 5821 5822 5823 5825 5827 5828 5830 5832 5834 5836 5838 5840 5842 5844 5846 5848 5850 5852 5853 5855 5857 5859 5861 5862 5864 5865 5866 5867 5868 5869 5870 5871 5873 5874 5875 5876 5878 5879 5880 5881 5881 5882 5884 5885 5887 5888 5889 5889 5890 5891 5892 5892 5893 5893 5894 5896 5897 5896 5896 5898 5899 5900 5901
5780 5781 5782 5783 5784 5785 5786 5788 5789 5791 5792 5793 5795 5798 5800 5801 5803 5805 5806 5808 5810 5812 5814 5816 5817 5818 5818 5820 5821 5823 5825 5827 5829 5831 5833 5835 5837 5839 5841 5843 5845 5847 5849 5850 5852 5854 5855 5857 5858 5860 5862 5863 5864 5865 5867 5868 5869 5870 5872 5873 5874 5875 5876 5877 5878 5879 5880 5882 5883 5884 5886 5886 5887 5888 5889 5889 5890 5890 5891 5893 5894 5894 5894 5895 5896 5897 5899
5778 5779 5780 5781 5782 5783 5784 5785 5786 5787 5788 5790 5792 5793 5795 5796 5798 5800 5802 5803 5805 5806 5808 5811 5813 5814 5815 5816 5817 5819 5821 5822 5824 5826 5828 5830 5832 5834 5836 5838 5840 5842 5844 5845 5847 5848 5850 5851 5853 5855 5856 5858 5860 5861 5863 5864 5865 5867 5868 5869 5870 5872 5873 5874 5875 5876 5877 5878 5880 5881 5882 5883 5884 5885 5886 5887 5888 5888 5888 5889 5891 5892 5892 5893 5893 5894 5896
5777 5778 5779 5780 5781 5781 5782 5783 5783 5784 5786 5787 5788 5789 5791 5792 5794 5795 5797 5799 5800 5802 5804 5806 5808 5810 5811 5812 5813 5814 5816 5817 5819 5821 5823 5825 5827 5829 5831 5832 5834 5836 5838 5840 5842 5843 5845 5846 5847 5849 5851 5853 5854 5856 5858 5860 5861 5862 5863 5865 5866 5868 5869 5870 5871 5872 5873 5875 5876 5877 5878 5879 5880 5881 5883 5884 5885 5885 5886 5886 5888 5889 5890 5891 5891 5892 5894
5776 5776 5777 5778 5779 5780 5780 5781 5781 5782 5783 5784 5785 5787 5788 5789 5790 5791 5793 5794 5796 5798 5799 5801 5803 5804 5806 5807 5808 5810 5811 5813 5814 5816 5818 5820 5822 5823 5825 5827 5829 5830 5832 5834 5836 5838 5839 5841 5842 5843 5845 5847 5848 5850 5853 5855 5857 5858 5859 5860 5861 5863 5864 5866 5867 5868 5869 5871 5872 5874 5874 5875 5876 5877 5878 5879 5880 5881 5882 5883 5884 5885 5887 5888 5889 5889 5890
5774 5775 5776 5776 5777 5778 5778 5779 5779 5780 5781 5782 5783 5784 5785 5786 5787 5788 5789 5790 5792 5793 5794 5796 5797 5799 5801 5802 5803 5805 5807 5808 5810 5811 5813 5814 5816 5818 5820 5822 5823 5825 5826 5828 5830 5832 5833 5835 5836 5838 5839 5841 5843 5845 5847 5849 5851 5853 5854 5855 5857 5858 5859 5861 5862 5863 5865 5866 5868 5869 5870 5871 5872 5873 5873 5874 5876 5877 5878 5879 5880 5881 5882 5884 5885 5886 5887
5772 5773 5774 5774 5775 5775 5776 5776 5777 5778 5778 5779 5780 5781 5782 5783 5784 5785 5786 5787 5788 5789 5790 5791 5793 5794 5796 5797 5799 5800 5802 5803 5804 5806 5807 5809 5811 5812 5814 5816 5817 5819 5820 5822 5824 5826 5827 5829 5830 5832 5834 5835 5837 5839 5840 5842 5844 5846 5848 5850 5852 5853 5854 5855 5857 5858 5859 5861 5862 5864 5866 5867 5868 5868 5869 5870 5871 5872 5873 5874 5876 5877 5878 5879 5881 5882 5883
5769 5770 5771 5772 5772 5773 5773 5774 5774 5775 5776 5776 5777 5778 5778 5779 5780 5781 5782 5783 5784 5785 5786 5787 5788 5789 5791 5792 5794 5795 5796 5797 5798 5800 5801 5803 5805 5806 5808 5809 5811 5812 5814 5816 5818 5820 5821 5822 5824 5826 5828 5829 5831 5832 5834 5835 5837 5839 5841 5843 5845 5847 5849 5850 5851 5852 5854 5855 5856 5858 5860 5861 5863 5864 5865 5865 5866 5867 5868 5869 5871 5872 5873 5874 5875 5876 5877
5767 5767 5768 5769 5769 5770 5770 5771 5771 5772 5773 5773 5774 5774 5775 5775 5776 5777 5778 5779 5780 5781 5782 5782 5784 5785 5786 5787 5788 5789 5790 5791 5792 5793 5795 5797 5798 5800 5801 5802 5804 5806 5808 5809 5811 5813 5814 5816 5818 5819 5821 5823 5824 5826 5827 5829 5831 5832 5834 5836 5838 5840 5842 5844 5845 5847 5848 5849 5850 5852 5854 5855 5857 5858 5859 5860 5861 5862 5863 5864 5865 5866 5867 5868 5869 5870 5871
5764 5765 5765 5766 5766 5766 5767 5767 5768 5768 5769 5770 5770 5771 5771 5772 5772 5773 5773 5774 5775 5776 5777 5778 5779 5780 5781 5782 5783 5783 5784 5785 5786 5787 5789 5790 5792 5793 5795 5796 5797 5798 5800 5802 5804 5805 5806 5808 5811 5813 5814 5816 5817 5819 5821 5822 5824 5825 5827 5829 5831 5833 5835 5837 5838 5840 5841 5842 5844 5845 5847 5849 5850 5852 5853 5854 5855 5857 5858 5859 5860 5860 5861 5862 5863 5864 5865
5761 5761 5762 5762 5762 5763 5763 5763 5764 5764 5765 5765 5766 5766 5767 5767 5768 5768 5769 5769 5770 5771 5772 5773 5773 5775 5776 5777 5778 5778 5779 5780 5781 5781 5782 5784 5786 5787 5788 5789 5789 5791 5793 5795 5796 5798 5799 5801 5803 5805 5807 5809 5811 5812 5814 5815 5817 5818 5820 5822 5823 5825 5827 5829 5831 5833 5834 5836 5837 5838 5840 5841 5843 5845 5846 5848 5849 5850 5851 5853 5854 5855 5856 5857 5858 5859 5860
5757 5758 5758 5758 5759 5759 5759 5759 5759 5760 5760 5760 5761 5761 5762 5762 5763 5763 5764 5764 5765 5766 5766 5767 5768 5769 5770 5771 5772 5773 5773 5774 5775 5776 5777 5779 5780 5780 5781 5781 5782 5784 5786 5788 5790 5791 5793 5795 5796 5798 5800 5802 5804 5805 5807 5809 5810 5812 5813 5814 5816 5818 5820 5822 5823 5825 5827 5829 5830 5832 5833 5835 5836 5837 5839 5840 5842 5843 5844 5845 5847 5848 5849 5850 5852 5853 5854
5753 5754 5754 5754 5754 5755 5755 5755 5755 5755 5755 5755 5755 5756 5756 5757 5757 5758 5758 5758 5759 5760 5760 5761 5762 5763 5764 5765 5766 5767 5767 5768 5769 5771 5772 5773 5773 5773 5773 5774 5775 5777 5779 5781 5783 5785 5786 5788 5790 5791 5793 5795 5796 5798 5800 5802 5803 5805 5806 5807 5808 5810 5812 5814 5816 5817 5819 5821 5823 5825 5827 5828 5829 5830 5831 5833 5834 5836 5837 5838 5839 5840 5841 5843 5844 5846 5847
5749 5749 5749 5749 5749 5749 5749 5750 5750 5750 5750 5750 5750 5750 5750 5750 5751 5751 5752 5752 5753 5753 5754 5754 5755 5756 5757 5758 5759 5760 5761 5762 5763 5765 5765 5766 5765 5765 5766 5767 5769 5771 5773 5774 5776 5778 5779 5781 5783 5784 5786 5787 5789 5791 5793 5794 5796 5797 5798 5800 5801 5802 5803 5805 5807 5809 5811 5813 5815 5817 5819 5821 5822 5823 5824 5826 5827 5829 5830 5831 5832 5833 5834 5835 5837 5838 5839
5745 5744 5744 5744 5743 5743 5743 5743 5743 5743 5743 5743 5743 5743 5743 5743 5743 5744 5744 5745 5746 5746 5747 5747 5748 5749 5749 5750 5751 5753 5754 5755 5756 5757 5758 5758 5758 5758 5759 5761 5763 5764 5766 5768 5769 5771 5772 5774 5776 5777 5779 5780 5782 5784 5785 5787 5788 5790 5791 5792 5794 5795 5796 5797 5798 5800 5802 5805 5807 5809 5810 5812 5814 5815 5817 5818 5820 5822 5823 5823 5825 5826 5827 5828 5829 5830 5831
5740 5739 5739 5738 5738 5737 5737 5737 5736 5736 5735 5735 5735 5735 5735 5735 5736 5736 5736 5737 5737 5738 5739 5739 5740 5741 5741 5742 5743 5744 5746 5747 5748 5749 5750 5750 5751 5752 5753 5754 5756 5757 5759 5761 5762 5763 5765 5767 5769 5770 5772 5774 5775 5777 5778 5780 5781 5782 5784 5785 5786 5787 5788 5789 5791 5792 5794 5797 5799 5800 5802 5804 5805 5807 5809 5810 5812 5814 5815 5816 5817 5818 5819 5820 5822 5823 5824
5735 5735 5734 5733 5732 5732 5731 5731 5730 5729 5729 5728 5728 5728 5727 5727 5727 5727 5727 5728 5729 5729 5730 5731 5732 5732 5733 5734 5735 5736 5737 5738 5739 5740 5741 5743 5744 5745 5746 5748 5749 5750 5751 5752 5753 5755 5758 5760 5762 5763 5765 5767 5769 5770 5771 5773 5774 5775 5776 5777 5778 5780 5781 5782 5783 5785 5787 5789 5791 5793 5794 5796 5797 5798 5800 5802 5803 5805 5806 5808 5809 5810 5811 5813 5814 5815 5817
5731 5730 5729 5728 5727 5726 5725 5724 5724 5723 5722 5721 5721 5720 5719 5719 5718 5718 5718 5719 5719 5720 5721 5721 5722 5723 5724 5725 5726 5727 5728 5730 5731 5731 5732 5734 5736 5738 5739 5741 5742 5743 5743 5744 5746 5748 5750 5752 5754 5756 5758 5760 5762 5763 5764 5765 5767 5768 5769 5770 5771 5772 5773 5775 5776 5778 5779 5781 5783 5785 5787 5788 5789 5791 5792 5793 5794 5796 5797 5798 5800 5801 5803 5804 5806 5807 5809
5726 5725 5724 5723 5721 5720 5719 5718 5716 5715 5714 5713 5712 5712 5711 5711 5710 5709 5709 5709 5709 5710 5711 5712 5712 5714 5715 5716 5717 5718 5719 5721 5722 5723 5724 5726 5728 5729 5731 5733 5734 5735 5736 5737 5739 5740 5742 5744 5746 5748 5750 5752 5754 5755 5757 5758 5759 5760 5761 5762 5763 5765 5766 5768 5770 5771 5773 5774 5776 5777 5779 5780 5782 5783 5785 5785 5786 5787 5788 5789 5791 5792 5794 5796 5797 5799 5801
5720 5719 5718 5716 5715 5713 5712 5710 5709 5707 5706 5704 5703 5702 5702 5701 5701 5700 5700 5699 5700 5700 5700 5701 5703 5704 5705 5707 5708 5709 5710 5712 5714 5715 5716 5718 5719 5721 5723 5724 5726 5728 5729 5730 5731 5733 5735 5737 5738 5740 5742 5743 5745 5748 5750 5751 5752 5753 5753 5754 5756 5757 5759 5761 5763 5764 5766 5767 5768 5770 5771 5772 5774 5775 5776 5777 5778 5780 5781 5782 5783 5784 5786 5787 5788 5790 5791
5714 5713 5711 5709 5707 5705 5704 5702 5700 5698 5697 5695 5694 5693 5692 5691 5691 5690 5690 5690 5690 5690 5690 5691 5692 5694 5695 5697 5699 5700 5701 5703 5705 5706 5707 5709 5711 5713 5715 5716 5717 5719 5721 5722 5723 5725 5727 5729 5730 5732 5734 5735 5738 5740 5742 5744 5744 5744 5745 5747 5748 5750 5752 5754 5756 5757 5758 5760 5761 5762 5764 5765 5766 5767 5767 5769 5770 5772 5773 5774 5776 5777 5778 5779 5780 5781 5782
5708 5706 5704 5701 5699 5697 5694 5692 5690 5689 5688 5686 5685 5684 5683 5682 5681 5681 5680 5680 5680 5680 5681 5682 5682 5684 5685 5687 5689 5690 5692 5694 5695 5697 5698 5700 5702 5704 5706 5707 5708 5710 5713 5713 5714 5716 5718 5720 5722 5724 5726 5728 5730 5733 5735 5736 5736 5736 5737 5740 5741 5743 5744 5746 5748 5750 5751 5752 5754 5755 5756 5758 5758 5758 5759 5760 5762 5764 5765 5766 5768 5769 5769 5770 5772 5773 5773
5701 5698 5696 5693 5691 5688 5686 5684 5682 5681 5679 5678 5677 5675 5674 5673 5672 5672 5671 5671 5671 5671 5671 5672 5673 5674 5676 5677 5678 5680 5683 5684 5686 5688 5689 5691 5693 5695 5697 5698 5700 5702 5704 5705 5706 5708 5710 5712 5713 5716 5718 5720 5723 5725 5727 5727 5727 5728 5730 5732 5734 5736 5737 5739 5741 5742 5743 5745 5746 5747 5748 5749 5750 5750 5751 5753 5754 5755 5757 5758 5759 5760 5761 5762 5763 5764 5765
5694 5692 5689 5686 5684 5681 5679 5677 5676 5674 5672 5671 5669 5667 5666 5664 5663 5663 5663 5662 5662 5662 5662 5663 5664 5665 5666 5668 5669 5671 5673 5675 5677 5679 5680 5682 5685 5686 5688 5690 5692 5694 5696 5697 5699 5700 5702 5704 5706 5708 5711 5713 5714 5716 5718 5718 5719 5721 5723 5725 5727 5728 5730 5731 5733 5734 5736 5738 5739 5740 5740 5741 5741 5742 5744 5746 5746 5747 5749 5750 5750 5751 5753 5754 5755 5755 5756
5688 5685 5682 5679 5676 5674 5672 5670 5668 5666 5664 5663 5661 5659 5658 5657 5656 5655 5654 5654 5654 5654 5654 5654 5655 5656 5657 5659 5661 5662 5664 5665 5667 5670 5672 5674 5676 5678 5680 5682 5684 5686 5688 5689 5691 5693 5695 5697 5699 5701 5703 5705 5706 5707 5709 5710 5711 5714 5716 5718 5719 5721 5722 5723 5725 5726 5728 5730 5731 5731 5732 5733 5734 5736 5737 5738 5739 5740 5741 5741 5742 5743 5745 5746 5746 5747 5747
5681 5678 5675 5672 5669 5667 5665 5663 5660 5658 5656 5654 5652 5651 5650 5649 5648 5647 5647 5646 5646 5645 5645 5646 5647 5648 5649 5651 5652 5654 5655 5657 5659 5661 5663 5665 5668 5670 5672 5675 5677 5679 5680 5682 5683 5686 5688 5690 5692 5694 5695 5697 5697 5699 5700 5702 5704 5707 5708 5710 5711 5713 5714 5716 5717 5718 5720 5721 5722 5723 5725 5726 5726 5728 5729 5730 5731 5732 5733 5734 5735 5736 5736 5737 5738 5738 5739
5674 5671 5668 5665 5662 5660 5658 5655 5653 5650 5648 5646 5645 5644 5642 5642 5641 5641 5640 5639 5638 5638 5638 5638 5639 5640 5641 5643 5644 5645 5647 5649 5651 5653 5656 5658 5660 5663 5665 5667 5669 5671 5673 5674 5676 5679 5681 5683 5685 5686 5688 5689 5690 5691 5693 5696 5698 5699 5700 5701 5703 5705 5706 5708 5709 5710 5712 5713 5714 5716 5717 5718 5719 5720 5721 5722 5723 5724 5725 5726 5727 5728 5729 5729 5730 5731 5731
5668 5665 5661 5659 5656 5654 5651 5648 5646 5643 5641 5640 5639 5637 5636 5635 5634 5634 5633 5632 5631 5631 5631 5631 5632 5632 5633 5634 5636 5637 5640 5642 5644 5646 5648 5650 5653 5655 5658 5660 5662 5664 5666 5668 5670 5672 5674 5676 5678 5679 5680 5682 5683 5685 5687 5689 5690 5691 5692 5693 5694 5696 5698 5700 5701 5702 5703 5705 5706 5708 5709 5710 5711 5712 5713 5714 5715 5716 5717 5718 5719 5720 5721 5721 5722 5723 5724
5662 5659 5656 5653 5651 5648 5645 5643 5640 5638 5636 5635 5633 5632 5630 5629 5627 5626 5625 5624 5623 5622 5623 5623 5624 5625 5626 5627 5628 5630 5633 5635 5637 5639 5641 5644 5646 5649 5651 5652 5654 5657 5659 5661 5664 5665 5667 5669 5671 5672 5673 5675 5677 5678 5680 5681 5682 5684 5684 5685 5687 5688 5690 5692 5694 5695 5696 5697 5699 5700 5701 5702 5704 5705 5706 5707 5708 5709 5709 5710 5711 5712 5713 5713 5714 5715 5716
5657 5653 5651 5648 5645 5643 5640 5638 5636 5634 5632 5630 5628 5626 5624 5621 5619 5617 5616 5614 5613 5613 5613 5614 5615 5617 5619 5620 5622 5624 5626 5628 5631 5633 5636 5638 5640 5643 5644 5646 5648 5650 5652 5654 5656 5658 5660 5662 5664 5665 5667 5668 5670 5671 5672 5674 5675 5677 5678 5679 5680 5681 5682 5684 5686 5687 5688 5690 5691 5692 5693 5695 5696 5697 5698 5699 5700 5701 5702 5702 5703 5704 5705 5706 5706 5707 5708
5652 5649 5646 5643 5641 5638 5635 5633 5631 5629 5627 5625 5622 5620 5617 5613 5611 5608 5606 5605 5604 5604 5604 5605 5607 5609 5611 5613 5615 5617 5620 5622 5625 5628 5630 5633 5635 5637 5639 5641 5643 5645 5646 5648 5650 5652 5653 5655 5657 5659 5660 5662 5663 5664 5666 5667 5668 5670 5671 5672 5673 5674 5675 5676 5678 5679 5681 5682 5684 5685 5686 5687 5688 5689 5690 5691 5692 5693 5694 5695 5695 5696 5697 5698 5698 5699 5700
5648 5645 5642 5639 5636 5633 5631 5629 5627 5625 5623 5620 5617 5614 5610 5606 5603 5600 5597 5595 5594 5594 5594 5596 5598 5601 5603 5606 5609 5612 5615 5617 5620 5622 5625 5628 5630 5633 5634 5636 5638 5639 5641 5643 5644 5645 5646 5648 5650 5652 5653 5655 5656 5658 5659 5660 5662 5663 5664 5665 5666 5667 5668 5670 5671 5672 5674 5675 5676 5677 5679 5680 5681 5681 5682 5683 5684 5685 5686 5687 5688 5689 5689 5690 5690 5691 5692
5644 5641 5638 5635 5632 5629 5627 5625 5623 5621 5619 5616 5613 5609 5605 5600 5597 5593 5590 5587 5585 5585 5585 5587 5590 5594 5597 5600 5603 5606 5610 5612 5615 5618 5621 5623 5625 5628 5630 5632 5633 5635 5636 5638 5639 5640 5641 5642 5644 5645 5647 5648 5650 5651 5652 5654 5655 5656 5657 5659 5660 5661 5662 5663 5664 5665 5667 5668 5669 5670 5672 5672 5673 5674 5675 5676 5677 5678 5679 5680 5680 5681 5682 5682 5683 5683 5684
5640 5637 5635 5632 5629 5626 5623 5622 5620 5618 5615 5613 5610 5606 5602 5598 5594 5590 5585 5581 5578 5578 5579 5581 5584 5588 5592 5595 5598 5602 5605 5608 5611 5614 5617 5619 5621 5624 5626 5628 5629 5631 5632 5633 5634 5635 5636 5637 5638 5639 5641 5642 5643 5645 5646 5647 5648 5649 5651 5652 5653 5654 5655 5656 5657 5658 5660 5661 5662 5663 5664 5665 5666 5667 5668 5669 5670 5671 5672 5672 5673 5674 5674 5675 5675 5676 5677
5637 5634 5631 5628 5625 5623 5620 5618 5617 5615 5613 5610 5607 5604 5601 5596 5593 5589 5585 5580 5577 5576 5576 5578 5581 5585 5589 5592 5595 5598 5601 5605 5608 5610 5613 5615 5618 5620 5622 5624 5625 5626 5628 5629 5630 5631 5631 5632 5633 5634 5635 5636 5637 5638 5639 5641 5642 5643 5644 5645 5647 5648 5649 5650 5650 5651 5652 5654 5655 5656 5657 5658 5659 5660 5660 5661 5662 5663 5664 5665 5665 5666 5667 5668 5668 5669 5669
5634 5631 5628 5625 5622 5620 5618 5616 5614 5612 5610 5608 5606 5603 5600 5597 5593 5590 5587 5584 5581 5579 5579 5580 5582 5585 5588 5591 5593 5596 5599 5602 5605 5607 5609 5612 5614 5616 5618 5619 5621 5622 5623 5625 5626 5626 5627 5627 5628 5629 5630 5631 5632 5633 5634 5635 5636 5637 5638 5639 5640 5641 5642 5643 5644 5645 5645 5646 5648 5649 5650 5651 5651 5652 5653 5654 5655 5655 5656 5657 5658 5659 5659 5660 5661 5661 5662
5631 5628 5625 5622 5620 5617 5615 5614 5612 5610 5609 5607 5605 5602 5600 5597 5594 5592 5589 5587 5585 5584 5583 5583 5584 5586 5588 5590 5592 5595 5597 5600 5602 5604 5606 5608 5611 5612 5614 5616 5617 5618 5619 5621 5622 5623 5623 5624 5624 5625 5625 5626 5627 5628 5628 5629 5630 5631 5632 5633 5634 5635 5636 5637 5638 5638 5639 5640 5641 5642 5643 5644 5645 5645 5646 5646 5647 5648 5649 5650 5650 5651 5652 5653 5653 5654 5655
5628 5625 5623 5620 5617 5615 5613 5612 5610 5609 5607 5606 5604 5602 5600 5598 5596 5594 5592 5590 5588 5587 5586 5586 5587 5588 5589 5590 5592 5594 5596 5598 5600 5602 5604 5606 5608 5609 5610 5611 5612 5614 5615 5617 5618 5619 5620 5620 5621 5621 5622 5622 5623 5623 5624 5624 5625 5626 5627 5628 5629 5630 5631 5631 5632 5633 5633 5634 5635 5636 5636 5637 5638 5638 5639 5639 5640 5641 5642 5642 5643 5644 5645 5646 5646 5647 5648
5625 5623 5621 5618 5616 5613 5611 5610 5609 5607 5606 5604 5603 5602 5600 5598 5596 5595 5594 5592 5591 5590 5589 5589 5589 5590 5590 5591 5593 5595 5596 5598 5599 5600 5602 5603 5605 5606 5607 5608 5609 5610 5612 5613 5615 5616 5617 5617 5617 5618 5618 5619 5619 5619 5620 5620 5621 5622 5622 5623 5624 5625 5626 5626 5627 5627 5628 5629 5629 5630 5630 5630 5631 5631 5632 5633 5633 5634 5635 5635 5636 5637 5638 5639 5639 5640 5640